Погода в Новом

Украина / Запорожская область     46°47′01″N   35°16′39″E
темп.,
°C
ветер,
м/с
пор.,
м/с
влажн.,
%
обл.,
%
осадки,
мм/ч
давл.,
гПа
погр.,
м
24 октября, вс
вс2400:00+13сз2568100 0.0 1020154
03:00+10ссз4670100 0.0 1021108
06:00+8с4765100 0.0 1021122
09:00+10ссз5751100 0.0 1023345
12:00+11ссз7743100 0.0 1023953
15:00+12ссз563696 0.0 10221788
18:00+9ссз464626 0.0 102486
21:00+7сз411585 0.0 1026259
25 октября, пн
пн2500:00+6ссз410795 0.0 1027285
03:00+4сз49755 0.0 1028228
06:00+4ссз376985 0.0 1030156
09:00+7с465591 0.0 1031794
12:00+9с55395 0.0 10321474
15:00+10с55320 0.0 10311498
18:00+7с34405 0.0 103258
21:00+5св33450 0.0 103327
26 октября, вт
вт2600:00+3всв33460 0.0 103329
03:00+2всв33490 0.0 103325
06:00+2всв33510 0.0 103330
09:00+5в45430 0.0 1033197
12:00+10вюв55380 0.0 10321115
15:00+11вюв55370 0.0 10301073
18:00+6вюв46520 0.0 1030115
21:00+4в47610 0.0 1030121
27 октября, ср
ср2700:00+3всв47630 0.0 1029101
03:00+4всв45660 0.0 102873
06:00+3всв46720 0.0 102788
09:00+7в48610 0.0 1027251
12:00+12вюв55410 0.0 1025865
15:00+13вюв44385 0.0 1024833
18:00+7юв2363100 0.0 102423
21:00+6всв2265100 0.0 102311
28 октября, чт
чт2800:00+6с2258100 0.0 102327
03:00+6ссз3459100 0.0 102367
06:00+4с346397 0.0 102347
09:00+7с364987 0.0 1024211
12:00+12с55295 0.0 1024938
15:00+14с55270 0.0 10241403
18:00+9ссз46480 0.0 102594
21:00+7с35580 0.0 102672